Location: *
(47.7414°N, 1.1750°W)
Time: 19:55:21
(UTC+00:00)

Daily predictions for brighter satellites

Satellite Brightness Start Highest point End
(mag) Time Altitude Azimuth Time Altitude Azimuth Time Altitude Azimuth
Cosmos 1703 Rocket 4.3 19:29:15 10° NNW 19:33:40 60° W 19:38:01 10° S
ADEOS Rocket 3.8 19:28:53 10° NNE 19:34:15 32° E 19:40:04 10° SSE
CZ-2C R/B 3.7 19:30:53 10° NNE 19:35:37 77° ESE 19:40:14 10° S
SAR-Lupe-2 4.4 19:34:18 10° N 19:37:51 57° WNW 19:41:23 10° SSW
Cosmos 923 Rocket 4.3 19:33:49 10° NNW 19:39:04 52° ENE 19:44:14 10° SE
SJ-11-01 4.4 19:35:26 10° SSE 19:40:09 85° WSW 19:44:55 10° NNW
Meteor 2-4 Rocket 4.3 19:35:20 10° N 19:40:18 36° ENE 19:45:13 10° SE
Nadezhda 2 Rocket 4.5 19:34:21 10° N 19:40:30 77° E 19:46:39 10° SSE
TSX-5 4.4 19:41:17 10° NNW 19:44:28 36° NE 19:48:11 10° ESE
Cosmos 1538 Rocket 4.4 19:42:10 10° NNW 19:47:18 66° WSW 19:52:25 10° S
Cosmos 44 4.0 19:43:19 10° NW 19:47:37 45° WSW 19:51:44 10° SSE
H-2A R/B 2.0 19:42:53 10° SSE 19:47:50 63° ENE 19:52:44 10° N
Cosmos 1680 Rocket 3.9 19:45:11 10° NNW 19:50:18 50° ENE 19:55:21 10° SE
Aureole 2 3.9 19:50:55 10° SSW 19:53:55 80° ESE 19:56:52 10° NNE
Resurs 01 Rocket 2.0 19:50:49 10° SE 19:55:02 46° ENE 19:59:16 10° N
USA 267 3.6 19:56:13 10° NE 20:02:45 72° NNW 20:09:15 10° WSW
Cosmos 1869 Rocket 4.5 20:00:44 10° SSW 20:04:57 53° WNW 20:09:14 10° N
Cosmos 1378 Rocket 4.4 20:02:07 10° N 20:06:08 33° ENE 20:09:24 14° SE
Cosmos 1733 Rocket 3.1 20:04:50 10° S 20:09:02 54° E 20:13:16 10° NNE
Cosmos 1656 4.1 20:06:18 10° NNW 20:11:50 48° NE 20:16:14 15° SE
Cosmos 1674 Rocket 3.7 20:08:24 10° N 20:12:41 52° ENE 20:16:26 13° SSE
Cosmos 1515 3.8 20:09:44 10° N 20:13:29 54° ENE 20:16:41 14° SSE
Cosmos 1833 Rocket 3.8 20:11:11 10° SSE 20:15:14 22° E 20:19:26 10° NE
Cosmos 2098 Rocket 4.2 20:11:08 10° N 20:15:19 34° ENE 20:19:12 16° SE
ASTEX 1 3.9 20:10:40 10° NNE 20:15:20 40° E 20:19:48 11° SSE
Meteor 1-11 Rocket 4.2 20:11:26 10° SSE 20:16:58 43° E 20:22:34 10° NNE
GENESIS II 4.3 20:13:12 10° SW 20:17:13 89° NW 20:21:21 10° NE
Cosmos 2082 Rocket 3.6 20:16:32 15° ESE 20:17:43 16° E 20:21:04 10° ENE
BREEZE-M DEB (TANK) 1.9 20:18:15 10° WNW 20:20:27 67° SSW 20:23:22 18° ESE
Terra 3.8 20:22:16 11° E 20:24:27 15° ENE 20:27:05 10° NNE
USA 186 4.2 20:22:55 10° SW 20:24:34 16° W 20:26:18 10° NW
SL-16 R/B 4.4 20:23:57 10° N 20:26:26 13° NNE 20:28:55 10° ENE
Cosmos 158 Rocket 4.4 20:21:17 10° NNW 20:26:26 49° ENE 20:29:59 20° SE
Cosmos 1697 Rocket 3.4 20:21:58 10° NNW 20:27:20 40° NE 20:30:58 19° ESE
Cosmos 1553 Rocket 4.0 20:21:21 10° S 20:27:37 86° E 20:34:01 10° N
Cosmos 1937 Rocket 4.2 20:24:03 10° SSE 20:28:44 33° E 20:33:28 10° NE
Cosmos 990 Rocket 4.4 20:24:06 10° S 20:28:56 40° ESE 20:33:47 10° NE
Spot 2 Rocket 3.6 20:25:07 15° SSE 20:29:14 62° ENE 20:34:16 10° N
Shenzhou-11 Module 2.9 20:28:03 10° SW 20:30:28 26° S 20:30:37 26° SSE
Cosmos 1666 4.2 20:31:54 19° E 20:32:04 19° E 20:34:48 10° NE
Meteor 1-5 Rocket 4.3 20:26:39 10° S 20:32:17 60° E 20:37:46 10° NNE
Cosmos 1975 Rocket 4.2 20:30:10 10° NNE 20:33:58 27° ENE 20:35:36 21° ESE
SL-24 R/B 4.4 20:29:55 10° S 20:34:43 87° W 20:39:42 10° N
CZ-2C R/B 3.2 20:32:32 10° NNE 20:37:23 36° E 20:40:29 20° SSE
USA 234 4.0 20:32:35 13° SSE 20:38:10 46° SW 20:44:28 10° WNW
MetOp-A 4.3 20:32:54 10° S 20:38:15 75° WSW 20:43:38 10° NNW
DMSP B5D2-2 4.0 20:36:14 10° NNE 20:41:28 65° ESE 20:46:42 10° S
SPOT 1/Viking Rocket 4.3 20:40:17 23° ESE 20:42:58 38° ENE 20:47:47 10° N
Cosmos 44 Rocket 3.7 20:40:21 10° NW 20:45:02 54° WSW 20:48:07 20° SSE
Cosmos 1709 Rocket 4.0 20:41:00 10° N 20:47:04 60° ENE 20:51:03 22° SSE
GP-B 3.1 20:43:27 10° N 20:47:54 65° E 20:50:36 23° SSE
SPOT 5 3.7 20:48:36 24° E 20:49:56 29° ENE 20:53:41 10° N
Cosmos 1980 Rocket 3.1 20:45:31 10° NNW 20:50:41 36° NE 20:53:29 23° E
Aureole 3 Rocket 2.3 20:50:15 17° S 20:52:55 85° E 20:56:02 10° N
S3M 4.1 20:46:51 10° SSW 20:53:09 79° W 20:59:24 10° N
Meteor 1-13 Rocket 4.4 20:47:30 10° NNW 20:53:09 74° W 20:58:09 14° S
Cosmos 2112 Rocket 4.4 20:49:10 10° NNW 20:54:20 59° WSW 20:58:11 17° S
SL-08 ROCKET BODY 4.3 20:49:44 10° N 20:55:40 86° E 20:59:54 20° S
COSMOS 2406 3.2 20:50:06 10° SSW 20:55:48 88° WNW 21:01:34 10° NNE
Meteor 1-23 Rocket 4.2 20:51:41 10° N 20:57:26 69° ENE 21:00:37 27° SSE
IGS 5A 3.9 21:00:49 35° ESE 21:01:52 43° ENE 21:05:49 10° N
EXPRESS MD2 3.0 20:59:01 10° WNW 21:03:00 49° SSW 21:03:15 47° SSW
Cosmos 2315 Rocket 4.1 20:58:39 19° SSE 21:03:18 62° E 21:09:33 10° NNE
Iridium 2 3.5 21:02:55 32° S 21:04:34 87° E 21:08:22 10° N
Abrixas rocket 2.0 21:03:42 10° W 21:06:47 77° N 21:07:10 63° ENE
Cosmos 2369 3.6 21:02:43 10° NNW 21:08:25 85° ENE 21:11:06 33° SSE
Cosmos 1500 3.5 21:06:02 16° SSW 21:09:01 65° WNW 21:12:52 10° N
Cosmos 1908 Rocket 3.5 21:05:56 19° S 21:09:06 88° W 21:13:37 10° N
CZ-2C R/B 3.8 21:05:36 13° SSW 21:09:37 43° W 21:14:14 10° NNW
Cosmos 1346 Rocket 2.9 21:11:23 48° ESE 21:11:29 48° E 21:15:13 10° NNE
SJ 16-02 1.2 21:12:29 21° SSW 21:15:23 81° ESE 21:19:51 10° NNE
Cosmos 1536 3.1 21:14:30 21° SSW 21:17:05 68° W 21:21:10 10° N
Okean 2 Rocket 3.9 21:19:47 32° E 21:19:47 32° E 21:23:26 10° NNE
ADEOS Rocket 3.9 21:14:13 10° N 21:19:57 50° WNW 21:26:14 10° SW
Cosmos 1898 Rocket 3.8 21:19:40 10° SSW 21:24:54 66° WNW 21:30:08 10° NNE
Cosmos 1340 2.6 21:27:34 65° ENE 21:27:34 65° ENE 21:31:09 10° NNE
H-2A R/B 4.4 21:24:18 10° SW 21:27:42 18° W 21:31:05 10° NW
USA 229 DEB 3.8 21:22:19 10° NW 21:29:34 79° NE 21:32:59 36° SE
USA 229 3.9 21:22:26 10° NW 21:29:40 79° NE 21:33:05 36° SE
Thor Agena Rocket 3.7 21:25:29 10° NNE 21:30:35 54° E 21:31:35 47° SE
Cosmos 1025 Rocket 4.3 21:27:21 10° NNE 21:30:54 26° ENE 21:30:54 26° ENE
Landsat 7 3.8 21:29:38 45° S 21:31:05 85° WSW 21:35:53 10° NNW
Sich 1 Rocket 3.5 21:30:07 53° SSE 21:31:06 76° E 21:35:36 10° NNE
Resurs 01 Rocket 3.9 21:28:29 10° SW 21:31:45 20° W 21:35:03 10° NW
NOSS 3-1 (A) 4.3 21:25:37 10° NW 21:32:51 59° NE 21:37:04 30° ESE
Geosat 4.4 21:34:32 37° S 21:36:17 57° WSW 21:41:15 10° NW
Cosmos 2322 Rocket 3.6 21:35:17 10° N 21:40:04 27° NE 21:41:57 23° ENE
Cosmos 1867 4.3 21:34:57 10° NNW 21:40:10 43° NE 21:41:52 33° E
ERS-1 Rocket 3.0 21:38:39 43° S 21:40:15 74° WSW 21:45:18 10° NNW
EO 1 Del DPAF 3.1 21:37:34 10° NNE 21:41:22 82° WNW 21:41:30 80° WSW
Cosmos 2360 4.1 21:37:48 10° NNW 21:43:33 89° SW 21:45:05 51° SSE
BREEZE-M DEB (TANK) 4.0 21:39:20 10° W 21:43:39 67° N 21:55:23 10° E
BREEZE-M DEB (TANK) 3.5 21:31:42 10° WNW 21:43:40 89° NE 21:44:35 56° ESE
USA 267 4.4 21:39:12 10° ENE 21:45:16 42° N 21:51:20 10° WNW
Cosmos 1782 Rocket 3.9 21:46:29 38° SW 21:47:58 61° WNW 21:52:22 10° N
Cosmos 1125 Rocket 4.4 21:49:00 33° ENE 21:49:00 33° ENE 21:52:46 10° NE
CZ-4C R/B 4.1 21:52:48 15° ENE 21:52:48 15° ENE 21:54:15 10° ENE
FALCON 9 R/B 4.2 21:29:26 10° SW 21:50:11 36° S 21:52:07 34° SSE
Cosmos 1743 3.2 21:52:42 51° NNE 21:52:42 51° NNE 21:55:41 10° NNE
Okean 2 3.3 21:50:21 10° N 21:54:19 82° NW 21:54:19 82° NW
Cosmos 1833 Rocket 3.0 21:53:02 10° SW 21:58:39 66° WNW 22:04:17 10° NNE
Cosmos 2082 Rocket 2.1 21:58:17 32° SSW 22:01:01 85° WNW 22:06:44 10° NNE
Terra 1.7 22:01:09 75° S 22:01:33 85° WSW 22:06:21 10° NNW
Cosmos 2151 Rocket 4.0 22:03:48 51° NE 22:03:48 51° NE 22:07:29 10° NNE
Cosmos 2278 4.3 21:58:57 10° NW 22:04:23 49° WSW 22:05:44 41° SSW
Cosmos 1666 4.0 22:06:47 33° W 22:07:25 35° WNW 22:10:59 10° N
Cosmos 2327 Rocket 4.5 22:01:02 10° N 22:07:29 74° E 22:08:48 57° SE
Meteor 2-9 Rocket 4.4 22:09:05 54° ESE 22:09:16 54° E 22:14:59 10° NNE
MOS 1 Rocket 3.6 22:04:28 10° NNE 22:09:54 88° WNW 22:10:54 61° SSW
Cosmos 1697 Rocket 3.6 22:06:05 10° NW 22:11:16 38° WSW 22:12:43 32° SW
Cosmos 1975 Rocket 4.4 22:07:52 10° NNW 22:11:52 33° W 22:12:45 30° WSW
SL-16 R/B 2.7 22:06:34 10° NNW 22:12:04 47° NE 22:12:55 44° E
Lacrosse 4 Rocket 4.0 22:14:27 10° N 22:16:08 12° NNE 22:17:26 11° NE
CZ-2C R/B 4.0 22:12:53 10° N 22:17:40 36° WNW 22:21:59 13° SW
Cosmos 372 Rocket 4.0 22:20:40 62° SW 22:21:26 76° WNW 22:26:42 10° NNE
Cosmos 1842 4.1 22:17:37 10° N 22:20:30 47° N 22:20:30 47° N
NOSS 3-1 (C) 4.1 22:15:14 10° NW 22:22:42 68° SW 22:25:03 48° S
Meteor 2-15 Rocket 4.3 22:22:41 66° SE 22:23:14 71° E 22:29:20 10° NNE
BREEZE M DEB (TANK) 2.8 22:23:45 76° NNE 22:23:45 76° NNE 22:32:12 10° E
Okean 1 Rocket 4.4 22:26:45 30° NE 22:26:45 30° NE 22:29:18 10° NNE
Cosmos 1975 3.6 22:26:25 49° NNW 22:26:25 49° NNW 22:29:35 10° N
IRAS Rocket 4.2 22:26:11 69° ESE 22:26:36 72° ENE 22:32:12 10° NNW
SPOT 5 3.9 22:27:51 31° W 22:28:00 31° W 22:31:53 10° NNW
Cosmos 2154 Rocket 3.8 22:21:47 10° N 22:28:05 84° E 22:28:54 69° SSE
Cosmos 2360 Rocket 3.4 22:24:26 10° NNW 22:29:27 31° NE 22:30:31 29° ENE
Meteor 1-21 4.1 22:24:12 10° NNW 22:29:52 84° W 22:30:15 77° SSW
Nadezhda 1 Rocket 3.8 22:30:24 69° S 22:31:14 86° E 22:37:25 10° N
Helios 1A 4.0 22:35:02 40° NNE 22:35:02 40° NNE 22:38:02 10° N
Cosmos 1300 Rocket 4.1 22:35:19 57° NNW 22:35:19 57° NNW 22:39:04 10° N
Cosmos 1980 Rocket 2.8 22:29:29 10° NW 22:34:48 44° WSW 22:35:15 43° WSW
Cosmos 2219 Rocket 4.4 22:31:33 10° N 22:34:58 16° NE 22:37:52 11° ENE
Meteor 1-12 Rocket 4.2 22:36:35 74° ESE 22:36:43 75° E 22:42:35 10° NNE
Meteor 2-15 4.4 22:35:48 61° SW 22:36:53 78° W 22:43:03 10° N
Spot 4 4.2 22:37:33 59° NE 22:37:33 59° NE 22:41:47 10° N
Mayak 0.1 22:39:53 10° NNE 22:42:19 33° NNE 22:42:19 33° NNE
SJ 16-02 4.2 22:52:06 10° W 22:54:36 15° NW 22:57:07 10° NNW
Cosmos 2341 Rocket 3.9 23:04:26 10° N 23:10:50 79° W 23:11:05 77° SW
Cosmos 2366 rocket 4.1 23:05:50 10° N 23:12:03 63° ENE 23:12:06 63° E
ALOS 2 3.8 23:24:30 41° N 23:24:30 41° N 23:27:25 10° N
NOSS 3-1 (A) 4.5 23:16:40 10° NW 23:23:53 46° WSW 23:24:30 45° SW
Cosmos 2322 Rocket 2.6 23:18:59 10° NNW 23:23:45 56° WNW 23:23:45 56° WNW
Cosmos 2333 Rocket 3.5 23:19:53 10° NNW 23:24:52 30° NE 23:25:59 28° ENE
Aureole 1 Rocket 4.4 23:17:11 10° NNW 23:25:10 62° ENE 23:26:09 57° E
USA 267 4.3 23:21:25 10° E 23:27:30 43° N 23:33:35 10° WNW
COSMOS 2455 3.8 23:29:40 10° NNW 23:35:20 39° NE 23:36:41 35° ENE
CZ-4C R/B 2.4 23:37:57 67° NNW 23:37:57 67° NNW 23:43:51 10° NE
Cosmos 2181 Rocket 3.9 23:38:53 74° WNW 23:38:53 74° WNW 23:44:59 10° N
SL-8 Rocket 4.1 23:33:20 10° NNW 23:39:29 68° W 23:39:29 68° W
Terra 4.4 23:40:03 11° W 23:40:03 11° W 23:41:18 10° WNW
Cosmos 864 Rocket 4.4 23:40:05 10° N 23:45:55 76° WNW 23:45:55 76° WNW
Lacrosse 4 Rocket 3.3 23:51:37 10° NNW 23:53:43 28° NNW 23:53:43 28° NNW
Helios 1B rocket 4.2 23:51:46 10° N 23:54:02 31° N 23:54:02 31° N
